LGX43B LIMJ-LIRA

Flight info

Callsign LGX43B
Flight time N/A
Altitude 25000
Route UNITA L50 KONER DCT EVROG DCT BAKRO DCT ELB DCT ELKAP
Aircraft C210/L-SDFGRWY/S

Departure

Time 2026-04-12 20:22
Airport Genoa Cristoforo Colombo Airport (LIMJ)

Arrival

Time N/A
Airport Ciampino–G. B. Pastine International Airport (LIRA)
Time Latitude Longitude Altitude Speed Heading
2026-04-12 20:19 44.41242 8.85224 14 ft 0 kts 195°
2026-04-12 20:20 44.41239 8.85225 14 ft 2 kts 139°
2026-04-12 20:20 44.41214 8.85273 14 ft 10 kts 179°
2026-04-12 20:20 44.41118 8.85243 14 ft 18 kts 195°
2026-04-12 20:21 44.41087 8.85231 14 ft 6 kts 195°
2026-04-12 20:21 44.41033 8.85165 14 ft 15 kts 234°
2026-04-12 20:21 44.41028 8.85039 14 ft 0 kts 283°
2026-04-12 20:21 44.41028 8.85038 14 ft 2 kts 283°
2026-04-12 20:22 44.41111 8.84640 14 ft 76 kts 283°
2026-04-12 20:22 44.41292 8.83662 82 ft 114 kts 288°
2026-04-12 20:22 44.41530 8.82546 453 ft 123 kts 291°
2026-04-12 20:22 44.41750 8.81395 835 ft 125 kts 290°
2026-04-12 20:23 44.41714 8.80158 1204 ft 134 kts 247°
2026-04-12 20:23 44.41056 8.79259 1582 ft 136 kts 201°
2026-04-12 20:23 44.40129 8.79180 1862 ft 140 kts 159°
2026-04-12 20:23 44.39353 8.79968 2142 ft 141 kts 129°
2026-04-12 20:24 44.38644 8.80938 2420 ft 146 kts 134°
2026-04-12 20:24 44.37761 8.81693 2677 ft 155 kts 162°
2026-04-12 20:24 44.36677 8.81892 2956 ft 159 kts 174°
2026-04-12 20:24 44.35550 8.81912 3246 ft 161 kts 178°
2026-04-12 20:25 44.34440 8.81859 3533 ft 162 kts 180°
2026-04-12 20:25 44.33322 8.81785 3821 ft 161 kts 180°
2026-04-12 20:25 44.32201 8.81705 4109 ft 160 kts 180°
2026-04-12 20:25 44.31094 8.81625 4393 ft 160 kts 180°
2026-04-12 20:26 44.30001 8.81546 4674 ft 159 kts 180°
2026-04-12 20:26 44.28898 8.81467 4958 ft 159 kts 180°
2026-04-12 20:26 44.27788 8.81384 5244 ft 159 kts 180°
2026-04-12 20:26 44.26692 8.81302 5526 ft 159 kts 180°
2026-04-12 20:27 44.25601 8.81223 5808 ft 158 kts 180°
2026-04-12 20:27 44.24510 8.81144 6092 ft 157 kts 179°
2026-04-12 20:27 44.23421 8.81051 6384 ft 155 kts 177°
2026-04-12 20:27 44.22353 8.80972 6679 ft 153 kts 176°
2026-04-12 20:28 44.21299 8.80907 6967 ft 151 kts 176°
2026-04-12 20:28 44.20306 8.80843 7235 ft 150 kts 176°
2026-04-12 20:28 44.19268 8.80773 7514 ft 149 kts 177°
2026-04-12 20:28 44.18229 8.80701 7790 ft 148 kts 177°
2026-04-12 20:29 44.17111 8.80622 8087 ft 147 kts 177°
2026-04-12 20:29 44.16012 8.80544 8377 ft 146 kts 178°
2026-04-12 20:29 44.14983 8.80471 8648 ft 145 kts 178°
2026-04-12 20:29 44.13991 8.80498 8901 ft 140 kts 161°
2026-04-12 20:30 44.13137 8.81082 9162 ft 137 kts 147°
2026-04-12 20:30 44.12357 8.81822 9439 ft 135 kts 143°
2026-04-12 20:30 44.11617 8.82607 9686 ft 135 kts 142°
2026-04-12 20:30 44.10878 8.83431 9925 ft 135 kts 141°
2026-04-12 20:31 44.10155 8.84256 10161 ft 136 kts 141°
2026-04-12 20:31 44.09428 8.85095 10399 ft 136 kts 141°
2026-04-12 20:31 44.08695 8.85946 10639 ft 137 kts 141°
2026-04-12 20:31 44.07928 8.86838 10888 ft 137 kts 141°
2026-04-12 20:32 44.07171 8.87720 11133 ft 137 kts 142°
2026-04-12 20:32 44.06443 8.88566 11367 ft 137 kts 142°
2026-04-12 20:32 44.05711 8.89419 11602 ft 138 kts 142°
2026-04-12 20:32 44.04979 8.90271 11835 ft 138 kts 142°
2026-04-12 20:33 44.04235 8.91137 12070 ft 139 kts 142°
2026-04-12 20:33 44.03502 8.91989 12300 ft 139 kts 142°
2026-04-12 20:33 44.02739 8.92878 12539 ft 139 kts 143°
2026-04-12 20:33 44.01994 8.93743 12771 ft 140 kts 143°
2026-04-12 20:34 44.01246 8.94612 13003 ft 140 kts 143°
2026-04-12 20:34 44.00497 8.95482 13233 ft 141 kts 143°
2026-04-12 20:34 43.99745 8.96355 13463 ft 141 kts 143°
2026-04-12 20:34 43.98991 8.97231 13693 ft 142 kts 144°
2026-04-12 20:35 43.98240 8.98103 13921 ft 142 kts 144°
2026-04-12 20:35 43.97480 8.98983 14154 ft 142 kts 144°
2026-04-12 20:35 43.96725 8.99858 14386 ft 142 kts 144°
2026-04-12 20:35 43.95963 9.00741 14621 ft 142 kts 144°
2026-04-12 20:36 43.95211 9.01611 14853 ft 142 kts 144°
2026-04-12 20:36 43.94451 9.02491 15089 ft 141 kts 144°
2026-04-12 20:36 43.93675 9.03389 15329 ft 141 kts 144°
2026-04-12 20:36 43.92912 9.04272 15567 ft 141 kts 144°
2026-04-12 20:37 43.92166 9.05135 15801 ft 141 kts 144°
2026-04-12 20:37 43.91414 9.06006 16039 ft 141 kts 144°
2026-04-12 20:37 43.90659 9.06880 16277 ft 141 kts 144°
2026-04-12 20:37 43.89917 9.07741 16508 ft 139 kts 144°
2026-04-12 20:38 43.89175 9.08600 16747 ft 138 kts 144°
2026-04-12 20:38 43.88440 9.09450 16981 ft 137 kts 144°
2026-04-12 20:38 43.87711 9.10293 17212 ft 136 kts 144°
2026-04-12 20:38 43.86989 9.11128 17439 ft 135 kts 144°
2026-04-12 20:39 43.86265 9.11963 17670 ft 136 kts 144°
2026-04-12 20:39 43.85537 9.12802 17906 ft 137 kts 144°
2026-04-12 20:39 43.84806 9.13647 18145 ft 137 kts 144°
2026-04-12 20:39 43.84083 9.14482 18380 ft 136 kts 144°
2026-04-12 20:40 43.83361 9.15318 18612 ft 136 kts 144°
2026-04-12 20:40 43.82630 9.16164 18841 ft 136 kts 144°
2026-04-12 20:40 43.81914 9.16992 19062 ft 136 kts 145°
2026-04-12 20:40 43.81193 9.17826 19280 ft 136 kts 145°
2026-04-12 20:41 43.80461 9.18669 19498 ft 136 kts 145°
2026-04-12 20:41 43.79743 9.19497 19708 ft 136 kts 146°
2026-04-12 20:41 43.79014 9.20337 19918 ft 136 kts 146°
2026-04-12 20:41 43.78289 9.21173 20124 ft 136 kts 146°
2026-04-12 20:42 43.77566 9.22005 20326 ft 136 kts 146°
2026-04-12 20:42 43.76836 9.22844 20527 ft 137 kts 146°
2026-04-12 20:42 43.76103 9.23685 20731 ft 139 kts 146°
2026-04-12 20:42 43.75346 9.24554 20893 ft 142 kts 147°
2026-04-12 20:43 43.74581 9.25432 21076 ft 145 kts 146°
2026-04-12 20:43 43.73798 9.26325 21257 ft 147 kts 146°
2026-04-12 20:43 43.73002 9.27236 21442 ft 149 kts 146°
2026-04-12 20:43 43.72207 9.28151 21628 ft 151 kts 146°
2026-04-12 20:44 43.71401 9.29078 21815 ft 152 kts 146°
2026-04-12 20:44 43.70581 9.30020 22003 ft 152 kts 146°
2026-04-12 20:44 43.69768 9.30954 22187 ft 153 kts 146°
2026-04-12 20:44 43.68951 9.31893 22369 ft 154 kts 146°
2026-04-12 20:45 43.68124 9.32841 22550 ft 154 kts 146°
2026-04-12 20:45 43.67301 9.33784 22727 ft 155 kts 146°
2026-04-12 20:45 43.66478 9.34727 22901 ft 155 kts 146°
2026-04-12 20:45 43.65642 9.35685 23075 ft 156 kts 146°
2026-04-12 20:46 43.64808 9.36639 23245 ft 156 kts 146°
2026-04-12 20:46 43.63976 9.37592 23411 ft 157 kts 146°
2026-04-12 20:46 43.63132 9.38557 23577 ft 157 kts 146°
2026-04-12 20:46 43.62294 9.39515 23740 ft 158 kts 146°
2026-04-12 20:47 43.61456 9.40472 23902 ft 158 kts 146°
2026-04-12 20:47 43.60613 9.41433 24065 ft 158 kts 146°
2026-04-12 20:47 43.59767 9.42398 24227 ft 157 kts 146°
2026-04-12 20:47 43.58919 9.43367 24387 ft 157 kts 146°
2026-04-12 20:48 43.58089 9.44313 24542 ft 157 kts 146°
2026-04-12 20:48 43.57248 9.45273 24698 ft 157 kts 146°
2026-04-12 20:48 43.56408 9.46232 24851 ft 156 kts 146°
2026-04-12 20:48 43.55547 9.47209 24863 ft 164 kts 146°
2026-04-12 20:49 43.54661 9.48217 24861 ft 170 kts 145°
2026-04-12 20:49 43.53738 9.49268 24859 ft 174 kts 145°
2026-04-12 20:49 43.52796 9.50341 24859 ft 177 kts 145°
2026-04-12 20:49 43.51834 9.51437 24858 ft 180 kts 145°
2026-04-12 20:50 43.50867 9.52539 24858 ft 181 kts 145°
2026-04-12 20:50 43.49900 9.53640 24857 ft 183 kts 145°
2026-04-12 20:50 43.48917 9.54758 24857 ft 184 kts 145°
2026-04-12 20:50 43.47920 9.55891 24857 ft 185 kts 145°
2026-04-12 20:51 43.46931 9.57016 24856 ft 185 kts 145°
2026-04-12 20:51 43.45941 9.58139 24856 ft 186 kts 145°
2026-04-12 20:51 43.44946 9.59270 24856 ft 186 kts 145°
2026-04-12 20:51 43.43940 9.60411 24856 ft 186 kts 145°
2026-04-12 20:52 43.42941 9.61544 24856 ft 186 kts 145°
2026-04-12 20:52 43.41947 9.62670 24856 ft 186 kts 145°
2026-04-12 20:52 43.40945 9.63805 24856 ft 187 kts 145°
2026-04-12 20:52 43.39943 9.64940 24856 ft 187 kts 145°
2026-04-12 20:53 43.38941 9.66073 24855 ft 187 kts 146°
2026-04-12 20:53 43.37939 9.67206 24855 ft 187 kts 146°
2026-04-12 20:53 43.36934 9.68343 24855 ft 186 kts 146°
2026-04-12 20:53 43.35938 9.69469 24855 ft 186 kts 146°
2026-04-12 20:54 43.34932 9.70605 24855 ft 186 kts 146°
2026-04-12 20:54 43.33936 9.71730 24855 ft 186 kts 146°
2026-04-12 20:54 43.32937 9.72857 24855 ft 186 kts 146°
2026-04-12 20:54 43.31929 9.73994 24855 ft 186 kts 146°
2026-04-12 20:55 43.30936 9.75115 24853 ft 185 kts 145°
2026-04-12 20:55 43.29941 9.76237 24855 ft 183 kts 145°
2026-04-12 20:55 43.28966 9.77321 24855 ft 183 kts 145°
2026-04-12 20:55 43.27981 9.78432 24855 ft 183 kts 144°
2026-04-12 20:56 43.27000 9.79541 24854 ft 183 kts 144°
2026-04-12 20:56 43.26024 9.80642 24854 ft 183 kts 144°
2026-04-12 20:56 43.25044 9.81746 24854 ft 183 kts 144°
2026-04-12 20:56 43.24063 9.82844 24855 ft 182 kts 144°
2026-04-12 20:57 43.23076 9.83945 24854 ft 181 kts 144°
2026-04-12 20:57 43.22103 9.85038 24854 ft 181 kts 143°
2026-04-12 20:57 43.21135 9.86129 24854 ft 180 kts 143°
2026-04-12 20:57 43.20170 9.87216 24854 ft 180 kts 144°
2026-04-12 20:58 43.19205 9.88300 24854 ft 180 kts 144°
2026-04-12 20:58 43.18245 9.89379 24854 ft 180 kts 144°
2026-04-12 20:58 43.17270 9.90474 24854 ft 179 kts 144°
2026-04-12 20:58 43.16309 9.91551 24853 ft 179 kts 144°
2026-04-12 20:59 43.15361 9.92616 24853 ft 178 kts 144°
2026-04-12 20:59 43.14408 9.93685 24841 ft 177 kts 144°
2026-04-12 20:59 43.13438 9.94770 24805 ft 178 kts 144°
2026-04-12 20:59 43.12494 9.95827 24820 ft 176 kts 144°
2026-04-12 21:00 43.11552 9.96881 24849 ft 174 kts 144°
2026-04-12 21:00 43.10613 9.97930 24853 ft 175 kts 144°
2026-04-12 21:00 43.09663 9.98991 24854 ft 175 kts 144°
2026-04-12 21:00 43.08730 10.00032 24856 ft 175 kts 143°
2026-04-12 21:01 43.07779 10.01079 24854 ft 174 kts 143°
2026-04-12 21:01 43.06845 10.02121 24853 ft 172 kts 142°
2026-04-12 21:01 43.05933 10.03145 24852 ft 171 kts 142°
2026-04-12 21:01 43.05009 10.04180 24852 ft 170 kts 142°
2026-04-12 21:02 43.04091 10.05208 24820 ft 171 kts 142°
2026-04-12 21:02 43.03173 10.06231 24801 ft 171 kts 142°
2026-04-12 21:02 43.02248 10.07264 24798 ft 170 kts 142°
2026-04-12 21:02 43.01338 10.08278 24798 ft 170 kts 143°
2026-04-12 21:03 43.00428 10.09292 24798 ft 169 kts 143°
2026-04-12 21:03 42.99514 10.10309 24797 ft 169 kts 143°
2026-04-12 21:03 42.98609 10.11317 24797 ft 168 kts 143°
2026-04-12 21:03 42.97693 10.12336 24797 ft 168 kts 143°
2026-04-12 21:04 42.96798 10.13331 24798 ft 168 kts 143°
2026-04-12 21:04 42.95890 10.14339 24820 ft 167 kts 143°
2026-04-12 21:04 42.94986 10.15344 24826 ft 167 kts 143°
2026-04-12 21:04 42.94098 10.16330 24826 ft 167 kts 143°
2026-04-12 21:05 42.93186 10.17341 24824 ft 167 kts 143°
2026-04-12 21:05 42.92282 10.18344 24824 ft 167 kts 143°
2026-04-12 21:05 42.91388 10.19337 24824 ft 167 kts 143°
2026-04-12 21:05 42.90480 10.20343 24824 ft 167 kts 143°
2026-04-12 21:06 42.89578 10.21343 24829 ft 168 kts 143°
2026-04-12 21:06 42.88669 10.22349 24831 ft 168 kts 143°
2026-04-12 21:06 42.87760 10.23355 24831 ft 169 kts 143°
2026-04-12 21:06 42.86860 10.24351 24831 ft 169 kts 143°
2026-04-12 21:07 42.85938 10.25372 24832 ft 169 kts 143°
2026-04-12 21:07 42.85031 10.26389 24855 ft 169 kts 143°
2026-04-12 21:07 42.84114 10.27402 24858 ft 170 kts 143°
2026-04-12 21:07 42.83200 10.28408 24858 ft 171 kts 143°
2026-04-12 21:08 42.82268 10.29434 24858 ft 172 kts 143°
2026-04-12 21:08 42.81351 10.30444 24858 ft 172 kts 143°
2026-04-12 21:08 42.80412 10.31479 24858 ft 172 kts 143°
2026-04-12 21:08 42.79489 10.32497 24858 ft 173 kts 143°
2026-04-12 21:09 42.78558 10.33524 24858 ft 173 kts 143°
2026-04-12 21:09 42.77614 10.34564 24857 ft 173 kts 143°
2026-04-12 21:09 42.76677 10.35596 24826 ft 175 kts 143°
2026-04-12 21:09 42.75745 10.36623 24806 ft 175 kts 143°
2026-04-12 21:10 42.74798 10.37666 24803 ft 175 kts 143°
2026-04-12 21:10 42.73853 10.38723 24798 ft 175 kts 134°
2026-04-12 21:10 42.73369 10.40246 24814 ft 181 kts 106°
2026-04-12 21:10 42.73187 10.41930 24804 ft 183 kts 103°
2026-04-12 21:11 42.73040 10.43670 24803 ft 184 kts 102°
2026-04-12 21:11 42.72924 10.45384 24802 ft 184 kts 101°
2026-04-12 21:11 42.72827 10.47127 24802 ft 185 kts 100°
2026-04-12 21:11 42.72741 10.48885 24802 ft 185 kts 99°
2026-04-12 21:12 42.72662 10.50637 24802 ft 185 kts 99°
2026-04-12 21:12 42.72589 10.52375 24802 ft 186 kts 99°
2026-04-12 21:12 42.72517 10.54142 24802 ft 186 kts 99°
2026-04-12 21:12 42.72446 10.55895 24802 ft 186 kts 99°
2026-04-12 21:13 42.72377 10.57641 24802 ft 186 kts 99°
2026-04-12 21:13 42.72307 10.59397 24802 ft 186 kts 99°
2026-04-12 21:13 42.72238 10.61146 24802 ft 186 kts 99°
2026-04-12 21:13 42.72169 10.62888 24801 ft 186 kts 99°
2026-04-12 21:14 42.71971 10.64602 24797 ft 179 kts 119°
2026-04-12 21:14 42.71396 10.65920 24807 ft 177 kts 126°
2026-04-12 21:14 42.71096 10.66568 24806 ft 177 kts 126°